map of PSS home
PSS - Airport
Location
City:  Posadas, Misiones, Argentina
Name:Libertador Gernal José de San Martín Airport
ICAO:SARP
IATA:PSS

Details
Type:Airport (Aerodrome, Airfield)
Latitude:27°23'09"S (-27.385838)
Longitude:55°58'15"W (-55.970727)
Datum:WGS 1984
Elevation:430 ft (131 m)
Variation:14.52°W (WMM2015 magnetic declination)
-0.18° annual change
Runways:1
Longest:7406 × 98 ft (2257 × 30 m), paved

Time
Time Zone:UTC-3
Local Time:

Weather
METAR:SARP 211000Z 36009KT 9999 FEW004 BKN020 OVC050 20/20 Q1008 RETSRA
TAF:SARP 210500Z 2106/2206 05010KT 5000 TSRA BKN015 BKN040 FEW050CB TX28/2118Z TN19/2109Z
BECMG 2111/2113 18010G20KT 2000 +TSRA BKN020 FEW050CB BKN050
BECMG 2119/2121 18010KT 9999 BKN020 BKN100

Related Locations
Nearby:
Farthest:HYN: 12264 mi / 19737 km
Huangyan [Luqiao], 33, CN

Find:

   beyond  
but within

Other Information
Maps:
NOTAMs:
Links:
Sources:

  
flag of Argentina
flag of Misiones
  

Sectional Chart

Flight Planning
at skyvector.com

Satellite Image

Google Maps Satellite view

 

Copyright © 2004-2017 Karl L. Swartz. All rights reserved.
The Great Circle Mapper name and logo are trademarks of the Great Circle Mapper.
All other trademarks mentioned herein belong to their respective owners.
Please see credits for attibutions and further copyright information.

  Follow gcmap on Facebook Follow gcmap on Twitter Follow gcmap on Google+ GCmap on LinkedIn

hCard Microformat

Geo Microformat